CW3224 Weather Reports


time (UTC)temp
C
wind
direction
speed
KPH
gust
KPH
rain 1hr
cm
rain 24hr
cm
rain mn
cm
humidity
%
barometer
mb
20260904222606 23 127 0.0 0.0 0.00 0.03 0.03 72 1008.1
20260904221604 24 127 0.0 0.0 0.00 0.03 0.03 72 1008.1
20260904221050 24 127 0.0 0.0 0.00 0.03 0.03 71 1008.1
20260904215602 24 127 0.0 0.0 0.00 0.03 0.03 70 1008.1
20260904215525 24 127 0.0 0.0 0.00 0.03 0.03 70 1008.1
20260904213601 25 131 0.0 0.0 0.00 0.03 0.03 69 1008.1
20260904212559 25 4 0.0 0.0 0.00 0.03 0.03 69 1008.1
20260904211556 25 181 0.0 0.0 0.00 0.03 0.03 68 1008.1
20260904210558 25 23 0.0 0.0 0.00 0.03 0.03 67 1008.1
20260904205553 25 8 0.0 0.0 0.00 0.03 0.03 68 1008.1
20260904204551 25 117 0.0 0.0 0.00 0.03 0.03 69 1008.1
20260904203548 25 117 0.0 0.0 0.00 0.03 0.03 68 1008.1
20260904202550 25 117 0.0 1.6 0.00 0.03 0.03 68 1008.1
20260904201548 25 66 0.0 1.6 0.00 0.03 0.03 64 1008.1
20260904200554 26 135 0.0 0.0 0.00 0.03 0.03 63 1008.1
20260904195546 26 126 0.0 0.0 0.00 0.03 0.03 63 1008.2
20260904194547 26 18 0.0 1.6 0.00 0.03 0.03 63 1008.2
20260904193546 26 128 0.0 3.2 0.00 0.03 0.03 59 1007.9
20260904192541 26 37 0.0 3.2 0.00 0.03 0.03 59 1007.7
20260904191539 26 236 0.0 0.0 0.00 0.03 0.03 59 1007.7
20260904190538 27 52 0.0 4.8 0.00 0.03 0.03 59 1008.1
20260904190020 27 166 0.0 6.4 0.00 0.03 0.03 61 1008.1
20260904185455 27 343 0.0 3.2 0.00 0.03 0.03 60 1008.1
20260904183537 27 14 1.6 8.0 0.00 0.03 0.03 58 1008.2
20260904182536 28 63 0.0 12.9 0.00 0.03 0.03 57 1008.2
20260904181536 28 103 0.0 6.4 0.00 0.03 0.03 58 1008.2
20260904180537 28 23 0.0 1.6 0.00 0.03 0.03 59 1008.2
20260904175537 28 108 0.0 6.4 0.00 0.03 0.03 57 1008.2
20260904174537 28 46 0.0 6.4 0.00 0.03 0.03 60 1008.2
20260904173536 28 42 0.0 8.0 0.00 0.03 0.03 60 1008.2
20260904172537 28 191 0.0 6.4 0.00 0.03 0.03 62 1008.2
20260904171535 27 48 0.0 3.2 0.00 0.03 0.03 64 1008.2
20260904170537 27 34 0.0 6.4 0.00 0.03 0.03 65 1008.6
20260904165535 27 27 0.0 4.8 0.00 0.03 0.03 66 1008.6
20260904164533 27 168 0.0 6.4 0.00 0.03 0.03 65 1008.6
20260904164014 27 87 0.0 1.6 0.00 0.03 0.03 65 1008.6
20260904162530 27 130 0.0 1.6 0.00 0.03 0.03 66 1008.6
20260904161531 27 79 0.0 0.0 0.00 0.03 0.03 70 1008.6
20260904160528 26 50 0.0 8.0 0.00 0.03 0.03 68 1008.7
20260904155528 26 296 0.0 4.8 0.00 0.03 0.03 71 1009.2
20260904155009 26 145 0.0 0.0 0.00 0.03 0.03 74 1009.2
20260904153526 26 59 0.0 4.8 0.00 0.03 0.03 75 1009.2
20260904152527 25 46 0.0 4.8 0.00 0.03 0.03 79 1009.3
20260904151526 24 158 0.0 0.0 0.00 0.03 0.03 79 1009.3
20260904150530 23 18 0.0 6.4 0.00 0.03 0.03 83 1009.3
20260904145525 22 37 0.0 0.0 0.00 0.03 0.03 91 1009.5
20260904144527 22 64 0.0 0.0 0.00 0.03 0.03 93 1009.5
20260904143526 21 8 0.0 0.0 0.00 0.03 0.03 94 1009.6
20260904142524 21 8 0.0 0.0 0.00 0.03 0.03 94 1009.7
20260904141524 21 10 0.0 0.0 0.00 0.03 0.03 95 1009.7
20260904140524 21 77 0.0 0.0 0.00 0.03 0.03 95 1009.7
20260904140008 20 208 0.0 0.0 0.00 0.03 0.03 95 1009.7
20260904134524 20 208 0.0 0.0 0.00 0.03 0.03 95 1009.7
20260904134005 20 139 0.0 0.0 0.00 0.03 0.03 95 1009.7
20260904132524 19 139 0.0 0.0 0.00 0.03 0.03 95 1009.9
20260904131959 18 186 0.0 0.0 0.00 0.03 0.03 95 1009.9
20260904131006 18 186 0.0 0.0 0.00 0.03 0.03 95 1009.8
20260904125522 18 185 0.0 0.0 0.00 0.03 0.03 95 1009.9
20260904124522 18 185 0.0 0.0 0.00 0.03 0.03 95 1009.9
20260904123520 17 185 0.0 0.0 0.00 0.03 0.03 94 1009.8
20260904122520 17 185 0.0 0.0 0.00 0.03 0.03 95 1009.8
20260904121520 17 185 0.0 0.0 0.00 0.03 0.03 94 1009.8
20260904120520 17 185 0.0 0.0 0.00 0.03 0.03 94 1009.7
20260904115521 17 185 0.0 0.0 0.00 0.03 0.03 94 1009.7
20260904114520 17 185 0.0 0.0 0.00 0.03 0.03 94 1009.7
20260904113519 17 185 0.0 0.0 0.00 0.03 0.03 94 1009.7
20260904112518 17 185 0.0 0.0 0.00 0.03 0.03 94 1009.7
20260904111518 17 185 0.0 0.0 0.00 0.03 0.03 94 1009.7
20260904110517 17 185 0.0 0.0 0.00 0.03 0.03 94 1009.7
20260904105519 17 185 0.0 0.0 0.00 0.03 0.03 94 1009.7
20260904104515 17 185 0.0 0.0 0.00 0.03 0.03 94 1009.7
20260904103516 17 185 0.0 0.0 0.00 0.03 0.03 94 1009.4
20260904102516 17 185 0.0 0.0 0.00 0.03 0.03 94 1009.3
20260904101516 17 185 0.0 0.0 0.00 0.03 0.03 94 1009.3
20260904100516 17 185 0.0 0.0 0.00 0.03 0.03 94 1009.2
20260904095517 17 185 0.0 0.0 0.00 0.03 0.03 94 1009.2
20260904094509 17 185 0.0 0.0 0.00 0.03 0.03 94 1009.2
20260904093509 17 185 0.0 0.0 0.00 0.08 0.03 94 1009.2
20260904092507 17 185 0.0 0.0 0.00 0.08 0.03 94 1009.2
20260904091507 17 185 0.0 0.0 0.00 0.13 0.03 94 1009.2
20260904090507 17 185 0.0 0.0 0.00 0.18 0.03 94 1009.2
20260904085503 17 185 0.0 0.0 0.00 0.18 0.03 94 1009.2
20260904084947 17 185 0.0 0.0 0.00 0.25 0.03 94 1009.2
20260904083503 17 185 0.0 0.0 0.00 0.25 0.03 93 1009.2
20260904082504 17 185 0.0 0.0 0.00 0.25 0.03 93 1009.3
20260904081503 18 185 0.0 0.0 0.00 0.25 0.03 94 1009.3
20260904080943 18 185 0.0 0.0 0.00 0.25 0.03 94 1009.7
20260904075938 18 185 0.0 0.0 0.00 0.30 0.03 94 1009.6
20260904074504 18 185 0.0 0.0 0.00 0.43 0.03 94 1009.6
20260904073504 18 185 0.0 0.0 0.00 0.43 0.03 93 1009.6
20260904072504 18 185 0.0 0.0 0.00 0.43 0.03 93 1009.7
20260904071454 18 185 0.0 0.0 0.00 0.43 0.03 93 1009.6
20260904070453 18 185 0.0 0.0 0.00 0.43 0.03 94 1009.6
20260904065453 18 185 0.0 0.0 0.03 0.43 0.03 93 1009.6
20260904064453 18 185 0.0 0.0 0.03 0.43 0.03 93 1009.7
20260904063453 18 185 0.0 0.0 0.03 0.43 0.03 93 1009.7
20260904062453 18 185 0.0 0.0 0.03 0.43 0.03 93 1009.8
20260904061452 18 185 0.0 0.0 0.03 0.43 0.03 93 1010.1
20260904060446 18 185 0.0 0.0 0.03 0.43 0.03 93 1010.1
20260904055445 18 185 0.0 0.0 0.00 0.41 0.00 93 1010.3
20260904054445 18 185 0.0 0.0 0.00 0.41 0.00 93 1010.6
20260904053446 18 185 0.0 0.0 0.00 0.41 0.00 93 1010.6
20260904052445 18 185 0.0 0.0 0.00 0.41 0.00 93 1010.7
20260904051442 18 185 0.0 0.0 0.00 0.41 0.00 93 1010.7
20260904050442 18 185 0.0 0.0 0.00 0.41 0.00 93 1010.7
20260904045441 18 187 0.0 0.0 0.00 0.41 0.00 93 1010.7
20260904044442 18 187 0.0 0.0 0.00 0.41 0.00 92 1010.7
20260904043435 18 187 0.0 0.0 0.00 0.41 0.00 92 1010.7
20260904042436 18 191 0.0 0.0 0.00 0.41 0.00 92 1010.8
20260904041435 18 191 0.0 0.0 0.00 0.41 0.00 92 1010.8
20260904040434 18 191 0.0 0.0 0.00 0.41 0.00 92 1010.8
20260904035904 18 191 0.0 0.0 0.00 0.41 0.41 91 1010.8
20260904034420 18 191 0.0 0.0 0.00 0.41 0.41 91 1011.1
20260904033420 18 191 0.0 0.0 0.00 0.41 0.41 92 1011.1
20260904032900 18 191 0.0 0.0 0.00 0.41 0.41 92 1011.0
20260904031420 18 191 0.0 0.0 0.00 0.41 0.41 91 1011.0
20260904030407 18 191 0.0 0.0 0.00 0.41 0.41 91 1011.0
20260904025848 18 191 0.0 0.0 0.00 0.41 0.41 91 1010.9
20260904024408 19 191 0.0 0.0 0.00 0.41 0.41 91 1011.2
20260904023407 19 191 0.0 0.0 0.00 0.41 0.41 91 1011.2
20260904022356 19 191 0.0 0.0 0.00 0.41 0.41 91 1011.2
20260904021354 19 191 0.0 0.0 0.00 0.41 0.41 91 1011.3
20260904020354 19 191 0.0 0.0 0.00 0.41 0.41 91 1011.3
20260904020307 19 191 0.0 0.0 0.00 0.41 0.41 91 1011.5
20260904014351 20 191 0.0 0.0 0.00 0.41 0.41 91 1011.4
20260904013350 20 191 0.0 0.0 0.00 0.41 0.41 90 1011.4
20260904012351 20 191 0.0 0.0 0.00 0.41 0.41 90 1011.6
20260904011350 20 191 0.0 0.0 0.00 0.41 0.41 90 1011.5
20260904010351 20 191 0.0 0.0 0.00 0.41 0.41 90 1011.5
20260904005348 20 191 0.0 0.0 0.00 0.41 0.41 90 1011.3
20260904004823 20 191 0.0 0.0 0.00 0.41 0.41 90 1011.3
20260904003347 20 191 0.0 0.0 0.00 0.41 0.41 89 1011.3
20260904002348 20 191 0.0 0.0 0.00 0.41 0.41 89 1010.9
20260904001348 21 191 0.0 0.0 0.00 0.41 0.41 89 1010.6
20260904000349 21 191 0.0 0.0 0.00 0.41 0.41 89 1010.6
20260903235340 21 191 0.0 0.0 0.00 0.41 0.41 89 1010.8
20260903234340 21 191 0.0 0.0 0.00 0.41 0.41 88 1010.6
20260903233340 21 191 0.0 0.0 0.00 0.41 0.41 88 1010.6
20260903232340 21 191 0.0 0.0 0.00 0.41 0.41 87 1010.7
20260903231340 22 191 0.0 0.0 0.00 0.41 0.41 87 1010.9
20260903230338 22 191 0.0 0.0 0.00 0.41 0.41 87 1010.9
20260903225338 22 191 0.0 0.0 0.00 0.41 0.41 87 1010.7
20260903224337 22 191 0.0 0.0 0.00 0.41 0.41 87 1010.7